| time (UTC) | temp F | wind direction | speed MPH | gust MPH | rain 1hr in | rain 24hr in | rain mn in | humidity % | barometer mb |
| 20260510103035 | 48 | 301 | 0.0 | 0.0 | 0.00 | 0.00 | 0.00 | 97 | 1012.6 |
| 20260510101535 | 48 | 301 | 0.0 | 0.0 | 0.00 | 0.00 | 0.00 | 96 | 1012.3 |
| 20260510100036 | 48 | 300 | 0.0 | 0.0 | 0.00 | 0.00 | 0.00 | 96 | 1012.1 |
| 20260510094540 | 48 | 300 | 0.0 | 0.0 | 0.00 | 0.00 | 0.00 | 96 | 1012.0 |
| 20260510093031 | 48 | 300 | 0.0 | 1.0 | 0.00 | 0.00 | 0.00 | 96 | 1012.1 |
| 20260510091530 | 48 | 41 | 0.0 | 0.0 | 0.00 | 0.00 | 0.00 | 95 | 1011.9 |
| 20260510090030 | 49 | 41 | 0.0 | 0.0 | 0.00 | 0.00 | 0.00 | 96 | 1011.8 |
| 20260510084529 | 50 | 132 | 0.0 | 0.0 | 0.00 | 0.00 | 0.00 | 96 | 1011.9 |
| 20260510083028 | 50 | 90 | 0.0 | 0.0 | 0.00 | 0.00 | 0.00 | 97 | 1012.1 |
| 20260510081535 | 49 | 356 | 0.0 | 12.0 | 0.00 | 0.00 | 0.00 | 98 | 1011.8 |
| 20260510080022 | 46 | 331 | 0.0 | 0.0 | 0.00 | 0.00 | 0.00 | 96 | 1011.3 |
| 20260510074521 | 46 | 331 | 0.0 | 2.0 | 0.00 | 0.00 | 0.00 | 97 | 1011.4 |
| 20260510073020 | 45 | 95 | 0.0 | 0.0 | 0.00 | 0.00 | 0.00 | 95 | 1011.2 |
| 20260510071520 | 45 | 95 | 0.0 | 0.0 | 0.00 | 0.00 | 0.00 | 96 | 1011.1 |
| 20260510070021 | 45 | 95 | 0.0 | 0.0 | 0.00 | 0.00 | 0.00 | 96 | 1011.0 |
| 20260510064520 | 45 | 95 | 0.0 | 0.0 | 0.00 | 0.00 | 0.00 | 95 | 1010.8 |
| 20260510063017 | 45 | 127 | 0.0 | 0.0 | 0.00 | 0.00 | 0.00 | 95 | 1010.6 |
| 20260510061522 | 45 | 127 | 0.0 | 0.0 | 0.00 | 0.00 | 0.00 | 95 | 1010.8 |
| 20260510060012 | 46 | 127 | 0.0 | 0.0 | 0.00 | 0.00 | 0.00 | 95 | 1010.8 |
| 20260510054511 | 46 | 127 | 0.0 | 0.0 | 0.00 | 0.00 | 0.00 | 95 | 1010.9 |
| 20260510053008 | 46 | 127 | 0.0 | 0.0 | 0.00 | 0.00 | 0.00 | 95 | 1011.1 |
| 20260510051516 | 46 | 127 | 0.0 | 0.0 | 0.00 | 0.00 | 0.00 | 94 | 1011.2 |
| 20260510050005 | 46 | 127 | 0.0 | 0.0 | 0.00 | 0.00 | 0.00 | 94 | 1011.3 |
| 20260510044508 | 46 | 127 | 0.0 | 0.0 | 0.00 | 0.00 | 0.00 | 94 | 1011.3 |
| 20260510043004 | 47 | 127 | 0.0 | 0.0 | 0.00 | 0.00 | 0.00 | 94 | 1011.3 |
| 20260510041636 | 47 | 127 | 0.0 | 0.0 | 0.00 | 0.00 | 0.00 | 94 | 1011.3 |
| 20260510040058 | 47 | 127 | 0.0 | 0.0 | 0.00 | 0.00 | 0.00 | 94 | 1011.4 |
| 20260510034559 | 48 | 127 | 0.0 | 0.0 | 0.00 | 0.00 | 0.00 | 94 | 1011.5 |
| 20260510033116 | 48 | 127 | 0.0 | 0.0 | 0.00 | 0.00 | 0.00 | 93 | 1011.4 |
| 20260510031557 | 48 | 127 | 0.0 | 0.0 | 0.00 | 0.00 | 0.00 | 94 | 1011.3 |
| 20260510030053 | 49 | 127 | 0.0 | 0.0 | 0.00 | 0.00 | 0.00 | 93 | 1011.1 |
| 20260510024609 | 49 | 127 | 0.0 | 0.0 | 0.00 | 0.00 | 0.00 | 93 | 1011.0 |
| 20260510023058 | 49 | 127 | 0.0 | 0.0 | 0.00 | 0.00 | 0.00 | 92 | 1010.9 |
| 20260510021552 | 50 | 127 | 0.0 | 0.0 | 0.00 | 0.00 | 0.00 | 92 | 1011.1 |
| 20260510020051 | 50 | 127 | 0.0 | 0.0 | 0.00 | 0.00 | 0.00 | 92 | 1011.0 |
| 20260510014611 | 50 | 127 | 0.0 | 0.0 | 0.00 | 0.00 | 0.00 | 91 | 1010.8 |
| 20260510013101 | 51 | 127 | 0.0 | 0.0 | 0.00 | 0.00 | 0.00 | 90 | 1010.6 |
| 20260510011549 | 52 | 127 | 0.0 | 0.0 | 0.00 | 0.00 | 0.00 | 90 | 1010.5 |
| 20260510010048 | 53 | 128 | 0.0 | 0.0 | 0.00 | 0.00 | 0.00 | 89 | 1010.3 |
| 20260510004550 | 54 | 127 | 0.0 | 0.0 | 0.00 | 0.00 | 0.00 | 87 | 1010.2 |
| 20260510003048 | 55 | 127 | 0.0 | 0.0 | 0.00 | 0.00 | 0.00 | 86 | 1010.2 |
| 20260510001547 | 56 | 124 | 0.0 | 0.0 | 0.00 | 0.00 | 0.00 | 85 | 1010.1 |
| 20260510000046 | 57 | 129 | 0.0 | 0.0 | 0.00 | 0.00 | 0.00 | 83 | 1010.1 |
| 20260509234546 | 58 | 119 | 0.0 | 1.0 | 0.00 | 0.00 | 0.00 | 82 | 1010.1 |
| 20260509233050 | 59 | 98 | 0.0 | 2.0 | 0.00 | 0.00 | 0.00 | 80 | 1010.1 |
| 20260509231552 | 60 | 98 | 0.0 | 0.0 | 0.00 | 0.00 | 0.00 | 78 | 1010.0 |
| 20260509230044 | 61 | 129 | 0.0 | 2.0 | 0.00 | 0.00 | 0.00 | 77 | 1010.0 |
| 20260509224544 | 61 | 123 | 0.0 | 0.0 | 0.00 | 0.00 | 0.00 | 77 | 1009.9 |
| 20260509223046 | 60 | 118 | 0.0 | 3.0 | 0.00 | 0.00 | 0.00 | 79 | 1010.0 |
| 20260509221545 | 60 | 80 | 0.0 | 0.0 | 0.00 | 0.00 | 0.00 | 78 | 1010.2 |
| 20260509220044 | 60 | 64 | 0.0 | 0.0 | 0.00 | 0.00 | 0.00 | 79 | 1010.1 |
| 20260509214542 | 59 | 101 | 0.0 | 0.0 | 0.00 | 0.00 | 0.00 | 79 | 1010.1 |
| 20260509213043 | 59 | 36 | 0.0 | 0.0 | 0.00 | 0.00 | 0.00 | 81 | 1010.1 |
| 20260509211541 | 59 | 30 | 0.0 | 2.0 | 0.00 | 0.00 | 0.00 | 81 | 1010.1 |
| 20260509210050 | 60 | 84 | 0.0 | 0.0 | 0.00 | 0.00 | 0.00 | 78 | 1010.0 |
| 20260509204538 | 60 | 326 | 0.0 | 0.0 | 0.00 | 0.00 | 0.00 | 79 | 1010.2 |
| 20260509203038 | 60 | 102 | 0.0 | 0.0 | 0.00 | 0.00 | 0.00 | 77 | 1010.1 |
| 20260509201538 | 60 | 6 | 0.0 | 0.0 | 0.00 | 0.00 | 0.00 | 76 | 1010.3 |
| 20260509200046 | 60 | 53 | 0.0 | 0.0 | 0.00 | 0.00 | 0.00 | 76 | 1010.2 |
| 20260509194537 | 60 | 79 | 0.0 | 5.0 | 0.00 | 0.00 | 0.00 | 76 | 1010.1 |
| 20260509193035 | 59 | 318 | 0.0 | 10.0 | 0.00 | 0.00 | 0.00 | 80 | 1010.4 |
| 20260509191535 | 58 | 14 | 0.0 | 5.0 | 0.00 | 0.00 | 0.00 | 81 | 1010.5 |
| 20260509190038 | 58 | 323 | 3.0 | 11.0 | 0.00 | 0.00 | 0.00 | 80 | 1011.0 |
| 20260509184535 | 58 | 299 | 2.0 | 8.0 | 0.00 | 0.00 | 0.00 | 80 | 1011.2 |
| 20260509183028 | 58 | 337 | 0.0 | 8.0 | 0.00 | 0.00 | 0.00 | 78 | 1011.5 |
| 20260509181527 | 58 | 16 | 0.0 | 0.0 | 0.00 | 0.00 | 0.00 | 77 | 1011.5 |
| 20260509180027 | 59 | 335 | 1.0 | 6.0 | 0.00 | 0.00 | 0.00 | 76 | 1011.5 |
| 20260509174526 | 59 | 337 | 0.0 | 1.0 | 0.00 | 0.00 | 0.00 | 77 | 1011.6 |
| 20260509173052 | 59 | 12 | 0.0 | 2.0 | 0.00 | 0.00 | 0.00 | 80 | 1011.5 |
| 20260509171530 | 60 | 356 | 0.0 | 0.0 | 0.00 | 0.00 | 0.00 | 75 | 1011.8 |
| 20260509170024 | 60 | 301 | 0.0 | 0.0 | 0.00 | 0.00 | 0.00 | 73 | 1011.8 |
| 20260509164524 | 60 | 301 | 0.0 | 0.0 | 0.00 | 0.00 | 0.00 | 74 | 1011.7 |
| 20260509163025 | 60 | 229 | 0.0 | 0.0 | 0.00 | 0.00 | 0.00 | 71 | 1011.7 |
| 20260509161524 | 61 | 205 | 0.0 | 0.0 | 0.00 | 0.00 | 0.00 | 73 | 1011.7 |
| 20260509160024 | 61 | 232 | 0.0 | 0.0 | 0.00 | 0.00 | 0.00 | 72 | 1011.7 |
| 20260509154522 | 61 | 249 | 0.0 | 0.0 | 0.00 | 0.00 | 0.00 | 72 | 1012.0 |
| 20260509153030 | 61 | 215 | 0.0 | 1.0 | 0.00 | 0.00 | 0.00 | 75 | 1012.4 |
| 20260509151521 | 61 | 223 | 0.0 | 2.0 | 0.00 | 0.00 | 0.00 | 75 | 1012.5 |
| 20260509150019 | 60 | 221 | 1.0 | 9.0 | 0.00 | 0.00 | 0.00 | 77 | 1012.5 |
| 20260509144519 | 60 | 212 | 2.0 | 12.0 | 0.00 | 0.00 | 0.00 | 76 | 1012.5 |
| 20260509143019 | 60 | 224 | 3.0 | 19.0 | 0.00 | 0.00 | 0.00 | 75 | 1012.5 |
| 20260509141518 | 61 | 231 | 7.0 | 12.0 | 0.00 | 0.00 | 0.00 | 76 | 1012.2 |
| 20260509140016 | 61 | 221 | 5.0 | 19.0 | 0.00 | 0.00 | 0.00 | 76 | 1012.1 |
| 20260509134515 | 61 | 216 | 11.0 | 22.0 | 0.00 | 0.00 | 0.00 | 77 | 1012.0 |
| 20260509133013 | 59 | 212 | 10.0 | 21.0 | 0.00 | 0.00 | 0.00 | 79 | 1012.0 |
| 20260509131510 | 59 | 213 | 3.0 | 14.0 | 0.00 | 0.00 | 0.00 | 81 | 1012.0 |
| 20260509130032 | 59 | 216 | 5.0 | 15.0 | 0.00 | 0.00 | 0.00 | 82 | 1011.9 |
| 20260509124525 | 58 | 185 | 1.0 | 16.0 | 0.00 | 0.00 | 0.00 | 83 | 1011.9 |
| 20260509123006 | 57 | 221 | 1.0 | 11.0 | 0.00 | 0.00 | 0.00 | 84 | 1012.0 |
| 20260509121502 | 56 | 210 | 3.0 | 10.0 | 0.00 | 0.00 | 0.00 | 85 | 1012.1 |
| 20260509120059 | 55 | 212 | 2.0 | 8.0 | 0.00 | 0.00 | 0.00 | 86 | 1012.2 |
| 20260509114626 | 54 | 191 | 0.0 | 0.0 | 0.00 | 0.00 | 0.00 | 87 | 1012.0 |
| 20260509113124 | 54 | 180 | 0.0 | 1.0 | 0.00 | 0.00 | 0.00 | 88 | 1011.9 |
| 20260509111557 | 53 | 164 | 0.0 | 0.0 | 0.00 | 0.00 | 0.00 | 88 | 1011.8 |
| 20260509110056 | 53 | 178 | 0.0 | 0.0 | 0.00 | 0.00 | 0.00 | 89 | 1011.7 |
| 20260509104545 | 53 | 181 | 0.0 | 0.0 | 0.00 | 0.00 | 0.00 | 88 | 1011.7 |